User: anonymous   Login
Location: Unspecified
(51.2667°N, 0.0000°E)
Time: 23:03:48
(UTC+00:00)
Language:

TIGRISAT - Orbit

View from above orbital plane
View from above orbital plane
View from above satellite
View from above satellite

Ground track
Ground track

The orbit data is extracted from the following two-line orbital elements,

1 40043U 14033AK  19235.86680269  .00000043  00000-0  13959-4 0  9995
2 40043  97.7488 100.8547 0058586 242.7138 116.8097 14.74283607278359
Epoch (UTC): 23 August 2019 20:48:11
Eccentricity: 0.0058586
inclination: 97.7488°
perigee height: 606 km
apogee height: 688 km
right ascension of ascending node: 100.8547°
argument of perigee: 242.7138°
revolutions per day: 14.74283607
mean anomaly at epoch: 116.8097°
orbit number at epoch: 27835

The dashed part of the orbit path shows where the satellite is in the earth's shadow,  

DLR